Tracking 30313 objects as of 21-Apr-2025
HD Live streaming from Space Station
objects crossing your sky now

STARLINK-4795

Track STARLINK-4795 now!
10-day predictions
STARLINK-4795 is classified as:


NORAD ID: 53856
Int'l Code: 2022-114AQ
Perigee: 545.9 km
Apogee: 547.8 km
Inclination: 53.2 °
Period: 95.4 minutes
Semi major axis: 6917 km
RCS: Unknown
Launch date: September 19, 2022
Source: United States (US)
Launch site: AIR FORCE EASTERN TEST RANGE (AFETR)
Your satellite tracking list
Your tracking list is empty




NASA's NSSDC Master Catalog

Two Line Element Set (TLE):
1 53856U 22114AQ  25109.92724742  .00001941  00000-0  14002-3 0  9996
2 53856  53.2172 297.6209 0001370  82.3024 277.8123 15.08840958143695
Source of the keplerian elements: AFSPC